Total_Precipitation_Accumulation
0.41 0.24 0.39 0.39 0.35 0.29 0.25 0.26 0.28 0.30 0.27 0.23 0.19 0.15 0.13 0.11 0.11 0.11 0.12 0.12 0.13 0.15 0.19 0.19 0.21 0.26 0.27 0.27 0.33 0.41 0.47 0.36 0.32 0.30 0.24 0.24 0.30 0.26 0.29 0.38 0.71 0.97 0.48
0.26 0.22 0.39 0.42 0.35 0.29 0.25 0.24 0.26 0.26 0.27 0.24 0.22 0.19 0.14 0.12 0.12 0.12 0.11 0.10 0.09 0.10 0.14 0.18 0.22 0.27 0.29 0.28 0.36 0.44 0.44 0.40 0.40 0.42 0.38 0.36 0.33 0.29 0.29 0.33 0.65 0.92 0.54
0.26 0.26 0.33 0.43 0.39 0.36 0.33 0.30 0.28 0.31 0.31 0.25 0.24 0.23 0.19 0.15 0.13 0.13 0.10 0.09 0.08 0.10 0.12 0.15 0.21 0.27 0.32 0.39 0.40 0.41 0.39 0.41 0.45 0.53 0.71 1.04 0.68 0.39 0.36 0.33 0.46 0.53 0.47
0.33 0.31 0.36 0.51 0.50 0.47 0.41 0.39 0.39 0.40 0.38 0.32 0.27 0.26 0.21 0.17 0.16 0.17 0.14 0.12 0.11 0.12 0.15 0.16 0.17 0.24 0.31 0.38 0.41 0.38 0.36 0.41 0.46 0.52 0.75 1.05 0.98 0.61 0.50 0.48 0.55 0.44 0.44
0.32 0.34 0.47 0.61 0.57 0.57 0.51 0.49 0.49 0.47 0.44 0.39 0.34 0.31 0.28 0.25 0.20 0.19 0.18 0.17 0.18 0.19 0.20 0.20 0.20 0.24 0.30 0.31 0.30 0.30 0.32 0.43 0.55 0.48 0.66 0.85 1.12 0.83 0.57 0.65 0.69 0.60 0.49
0.35 0.34 0.47 0.57 0.55 0.58 0.58 0.59 0.61 0.53 0.49 0.45 0.40 0.38 0.38 0.34 0.28 0.26 0.27 0.29 0.26 0.27 0.26 0.26 0.26 0.29 0.31 0.32 0.30 0.31 0.40 0.49 0.47 0.58 0.68 0.88 1.14 0.88 0.66 0.69 0.70 0.79 0.64
0.45 0.39 0.40 0.50 0.54 0.61 0.60 0.57 0.65 0.64 0.62 0.51 0.43 0.41 0.41 0.39 0.39 0.38 0.41 0.42 0.41 0.39 0.35 0.34 0.32 0.30 0.31 0.34 0.32 0.33 0.43 0.45 0.56 0.72 0.69 0.86 0.86 0.79 0.69 0.65 0.72 0.89 0.82
0.58 0.48 0.40 0.47 0.55 0.60 0.61 0.67 0.79 0.80 0.72 0.59 0.48 0.47 0.47 0.48 0.46 0.46 0.47 0.46 0.50 0.53 0.51 0.45 0.40 0.32 0.29 0.33 0.31 0.33 0.44 0.51 0.55 0.61 0.53 0.70 0.85 0.82 0.63 0.63 0.71 0.88 0.93
0.86 0.72 0.57 0.55 0.60 0.70 0.77 0.81 0.93 0.97 0.90 0.72 0.57 0.57 0.57 0.52 0.48 0.46 0.50 0.51 0.51 0.53 0.53 0.50 0.47 0.41 0.34 0.32 0.31 0.33 0.43 0.47 0.52 0.54 0.41 0.62 0.83 0.71 0.54 0.52 0.61 0.76 0.85
0.92 0.87 0.79 0.74 0.74 0.82 0.88 1.01 1.10 1.20 1.30 1.06 0.77 0.69 0.64 0.54 0.48 0.49 0.51 0.53 0.55 0.62 0.59 0.56 0.54 0.48 0.44 0.38 0.31 0.30 0.32 0.32 0.41 0.39 0.46 0.56 0.71 0.67 0.51 0.44 0.49 0.51 0.60
0.67 0.71 0.77 0.80 0.86 0.86 0.82 0.88 1.11 1.28 1.46 1.20 0.83 0.84 0.76 0.55 0.55 0.59 0.58 0.68 0.73 0.77 0.75 0.71 0.69 0.65 0.59 0.47 0.40 0.34 0.23 0.19 0.32 0.38 0.43 0.49 0.64 0.61 0.42 0.33 0.29 0.34 0.39
0.54 0.51 0.54 0.57 0.66 0.73 0.72 0.93 1.18 1.22 1.34 1.09 0.92 0.95 0.92 0.96 0.90 0.70 0.68 0.84 0.94 0.98 0.92 0.87 0.86 0.75 0.62 0.46 0.44 0.33 0.17 0.15 0.24 0.28 0.29 0.43 0.60 0.56 0.38 0.26 0.22 0.25 0.25
0.42 0.40 0.39 0.41 0.44 0.53 0.74 0.98 1.20 1.25 1.29 1.33 1.36 1.22 1.20 1.15 0.96 0.78 0.75 0.79 0.85 0.92 0.86 0.94 0.92 0.76 0.64 0.50 0.44 0.29 0.17 0.16 0.22 0.22 0.31 0.41 0.58 0.55 0.42 0.29 0.21 0.21 0.21
0.46 0.44 0.38 0.30 0.31 0.39 0.53 0.75 1.03 1.10 1.16 1.24 1.24 1.04 1.12 1.13 0.94 0.88 0.96 0.99 0.96 0.93 1.04 1.08 1.03 0.94 0.77 0.56 0.49 0.41 0.30 0.18 0.20 0.24 0.37 0.34 0.50 0.56 0.46 0.36 0.24 0.21 0.20
0.53 0.61 0.59 0.43 0.37 0.39 0.45 0.50 0.64 0.74 0.85 1.13 1.21 0.95 0.93 0.94 0.98 1.01 0.92 1.05 1.11 1.10 1.10 1.08 0.98 0.91 0.86 0.70 0.66 0.59 0.48 0.31 0.25 0.26 0.34 0.28 0.35 0.49 0.52 0.42 0.31 0.24 0.21
0.36 0.49 0.57 0.55 0.54 0.52 0.45 0.40 0.40 0.46 0.59 0.74 0.76 0.72 0.75 0.77 0.87 1.03 0.96 0.94 1.01 1.20 1.25 1.18 1.06 1.03 0.98 0.78 0.69 0.66 0.57 0.45 0.39 0.36 0.38 0.32 0.22 0.26 0.38 0.41 0.36 0.29 0.23
0.26 0.32 0.42 0.50 0.56 0.58 0.59 0.58 0.48 0.47 0.54 0.56 0.56 0.61 0.69 0.69 0.81 0.97 0.92 0.82 0.80 0.95 1.13 1.24 1.24 1.14 1.00 0.86 0.74 0.68 0.58 0.52 0.48 0.47 0.42 0.39 0.30 0.18 0.23 0.32 0.34 0.30 0.29
0.25 0.25 0.31 0.36 0.43 0.53 0.62 0.69 0.66 0.62 0.58 0.52 0.49 0.47 0.50 0.51 0.59 0.78 0.85 0.75 0.75 0.90 1.10 1.23 1.30 1.28 1.13 1.03 0.97 0.83 0.70 0.58 0.49 0.49 0.41 0.40 0.38 0.31 0.28 0.26 0.29 0.30 0.31
0.24 0.23 0.24 0.28 0.32 0.40 0.51 0.58 0.58 0.57 0.54 0.52 0.52 0.41 0.39 0.41 0.52 0.71 0.88 0.90 0.90 0.98 1.08 1.14 1.28 1.29 1.26 1.13 1.02 0.86 0.73 0.64 0.47 0.40 0.40 0.41 0.42 0.39 0.38 0.29 0.23 0.22 0.27
0.24 0.24 0.24 0.26 0.27 0.31 0.36 0.43 0.48 0.46 0.44 0.50 0.49 0.47 0.51 0.57 0.64 0.82 1.02 1.11 1.22 1.23 1.24 1.37 1.60 1.54 1.32 1.22 1.13 0.89 0.66 0.59 0.51 0.48 0.41 0.37 0.42 0.41 0.38 0.38 0.28 0.16 0.16
0.18 0.17 0.19 0.24 0.26 0.25 0.24 0.29 0.34 0.35 0.44 0.51 0.59 0.64 0.68 0.71 0.79 0.99 1.19 1.41 1.53 1.40 1.36 1.51 1.73 1.83 1.57 1.38 1.32 1.12 0.87 0.63 0.52 0.52 0.49 0.40 0.41 0.41 0.44 0.50 0.40 0.33 0.25
0.05 0.09 0.13 0.15 0.17 0.17 0.18 0.23 0.32 0.39 0.45 0.58 0.74 0.85 0.87 0.85 0.89 0.94 1.14 1.33 1.39 1.42 1.41 1.46 1.61 1.85 1.74 1.54 1.54 1.70 1.42 1.07 0.65 0.46 0.50 0.46 0.45 0.42 0.42 0.42 0.43 0.43 0.37
0.02 0.03 0.06 0.11 0.14 0.14 0.22 0.41 0.68 0.92 1.01 1.02 1.04 1.19 1.28 1.24 1.18 1.15 1.18 1.32 1.39 1.49 1.46 1.45 1.48 1.64 1.71 1.63 1.62 1.95 1.72 1.42 1.25 0.79 0.55 0.55 0.59 0.57 0.49 0.49 0.51 0.50 0.41
0.03 0.03 0.04 0.09 0.15 0.18 0.35 0.68 1.07 1.39 1.48 1.49 1.61 1.65 1.71 1.63 1.49 1.47 1.47 1.56 1.48 1.43 1.37 1.36 1.38 1.48 1.72 1.71 1.64 1.57 1.49 1.41 1.54 1.28 0.81 0.62 0.64 0.60 0.57 0.52 0.54 0.57 0.54
0.10 0.11 0.13 0.20 0.34 0.50 0.65 0.83 1.13 1.32 1.44 1.58 1.74 1.88 1.99 2.11 2.08 1.99 1.92 1.77 1.58 1.47 1.43 1.47 1.45 1.49 1.57 1.59 1.55 1.48 1.48 1.40 1.18 1.18 1.12 0.88 0.71 0.60 0.59 0.58 0.59 0.60 0.63
0.24 0.27 0.31 0.41 0.51 0.58 0.70 0.84 0.98 1.07 1.23 1.43 1.58 1.75 1.88 2.00 2.03 1.97 1.84 1.61 1.43 1.36 1.40 1.49 1.50 1.50 1.49 1.50 1.46 1.35 1.31 1.26 1.14 1.17 1.06 1.05 1.04 0.73 0.59 0.53 0.55 0.56 0.57